www.pogodaiklimat.ru

Погода и климат >> Архив погоды >> Россия >> Калмыкия >> Кетченеры


ПОГОДА в Кетченерах

  • Прогноз погоды в Кетченерах
  • Монитор погоды в Кетченерах

АРХИВ ПОГОДЫ в Кетченерах

Время (UTC), дата Ветер
(напр.,м/с)
 
Видим.   Явления Облачность Т
(С)
Тd
(С)
f
(%)
Тe
(С)
Тes
(С)
Комфортность P
(гПа)
Po
(гПа)
Тmin
(С)
Tmax
(С)
R
(мм)
R24
(мм)
S
(см)
09 17.07 З 4
{11}
20 км 3/3 1000 м
[Cu med, cong]
+25.2 +14.8 52 +28 +36 жарко 1007.0 1000.4
15 17.07 З 2 20 км 1/0
[Ac trans Ci fib]
+26.9 +12.2 40 +28 +30 жарко 1006.9 1000.4 +27.8
21 17.07 З 1 20 км ясно +17.9 +16.1 89 +19 +19 1008.0 1001.2
03 18.07 штиль 0 20 км 3/0
[Ac trans Ci fib]
+18.9 +15.7 82 +20 +22 1008.6 1001.8 +15.8
09 18.07 СВ 2 20 км 3/0
[Ac trans Ci fib]
+29.3 +11.1 32 +30 +45 жарко 1008.4 1001.8
15 18.07 штиль 0 20 км 10/10 600 м
[Sc]
+29.3 +11.5 33 +30 +30 жарко 1008.2 1001.6 +31.4
21 18.07 СЗ 4 20 км {ливн. осадки} 10/10 600 м
[Cb calv]
+20.0 +15.8 77 +23 +23 комфорт 1010.4 1003.6
03 19.07 З 1 10 км слаб. ливневой дождь 10/10 300 м
[Cb calv]
+19.7 +16.9 84 +23 +23 комфорт 1012.6 1005.9 +19.1 3
09 19.07 С 2 20 км {ливн. осадки} 1/0
[Ac trans]
+27.0 +16.1 51 +30 +47 душно 1013.1 1006.5
15 19.07 С 2 20 км 3/0
[Ci fib]
+29.1 +11.7 34 +30 +31 жарко 1012.7 1006.1 +29.7 0.3
21 19.07 З 1 20 км 10/10 600 м
[Sc]
+23.0 +16.1 65 +27 +27 душно 1014.6 1007.9
03 20.07 СЗ 1 20 км 4/0
[Ac trans]
+22.6 +16.6 69 +27 +28 душно 1016.5 1009.8 +20.5
09 20.07 С 1 20 км 3/0 1500 м
[]
+31.4 +12.1 31 +32 +50 жарко 1017.0 1010.4
15 20.07 СЗ 2 20 км 1/0
[Ac trans Ci fib]
+31.1 +8.4 24 +30 +31 жарко 1016.7 1010.2 +32.6
21 20.07 ЮЗ 1 20 км 1/0
[Ac trans]
+20.7 +14.2 66 +24 +24 комфорт 1018.0 1011.2
03 21.07 штиль 0 20 км 3/3 600 м
[Cb calv]
+20.8 +14.2 66 +23 +25 комфорт 1018.6 1011.8 +17.2
09 21.07 В 1 20 км 5/0
[Ac trans Ci fib]
+31.7 +8.8 24 +31 +46 жарко 1017.2 1010.7
15 21.07 С 2 20 км 9/5 600 м
[Cb calv Ac trans]
+30.7 +8.6 25 +30 +30 жарко 1014.7 1008.1 +33.5
21 21.07 С 3 20 км {ливн. осадки} 10/10 600 м
[Cb calv]
+22.0 +16.0 69 +26 +26 душно 1015.3 1008.5
03 22.07 ЮЗ 2 20 км {ливн. осадки} 10/10 600 м
[Cb calv]
+20.2 +15.5 74 +23 +23 комфорт 1015.9 1009.1 +19.9 6
09 22.07 С 2 20 км {ливн. осадки} 10/10 600 м
[Cb calv]
+24.2 +16.1 61 +28 +28 душно 1015.4 1008.7
15 22.07 ЮЗ 1 20 км ясно +29.1 +10.5 31 +29 +31 жарко 1014.0 1007.4 +30.6 0.1
21 22.07 З 1 20 км ясно +19.7 +16.3 81 +23 +23 комфорт 1014.7 1007.9
03 23.07 З 1 20 км ясно +20.1 +15.8 76 +24 +25 комфорт 1014.2 1007.4 +17.0
09 23.07 ЮВ 2 20 км 3/0
[Ac trans]
+31.0 +10.4 28 +31 +45 жарко 1012.8 1006.3
15 23.07 Ю 2 20 км 5/5 1500 м
[Cu hum]
+30.2 +9.6 28 +30 +31 жарко 1010.9 1004.3 +32.3
21 23.07 штиль 0 20 км 10/10 600 м
[Sc]
+21.7 +14.0 62 +25 +25 комфорт 1011.9 1005.2
03 24.07 штиль 0 20 км {ливн. осадки} 10/10 600 м
[Cb calv]
+20.5 +16.4 77 +23 +23 комфорт 1011.9 1005.2 +20.0

 

Местоположение метеостанции Кетченеры (Калмыкия, Россия): широта 47.32 долгота 44.57 высота над уровнем моря 58 м.

В архиве по умолчанию представлена погода в Кетченерах за последнюю неделю. Архивные данные за месяц целиком и за предыдущие месяцы, начиная с января 2011 года, Вы можете получить, выбрав интересующий диапазон дат из раскрывающегося списка и нажав кнопку "Ввод!".


*Определитесь, кто Вы:
робот инопланетянин человек

Внимание! Время в таблицах - всемирное. Для получения местного времени необходимо прибавить поправку, которая равна 3 ч.

Смотрите также архив погоды в соседних городах и на ближайших метеорологических станциях:

Погода в Малых Дербетах (Калмыкия, Россия) (69 км)
Погода в Элисте (Калмыкия, Россия) (107 км)
Погода в Ремонтном (Ростовская область, Россия) (108 км)
Погода в Котельниково (Волгоградская область, Россия) (112 км)
Погода в Юсте (Калмыкия, Россия) (134 км)
Погода в Яшкуле (Калмыкия, Россия) (140 км)
Погода в Черный Яр (Астраханская область, Россия) (143 км)
Погода в Волгограде город (Волгоградская область, Россия) (150 км)
Погода в Утте (Калмыкия, Россия) (153 км)
Погода в Нижнем Чире (Волгоградская область, Россия) (156 км)

Пояснения к столбцам:

Ветер - указаны скорость ветра в м/с - средняя за 10 мин, порывы в срок и между сроками (в фигурных скобках) и направление, откуда дует ветер: С - северный, СВ - северо-восточный, В - восточный, ЮВ - юго-восточный, Ю - южный, ЮЗ - юго-западный, З - западный, СЗ - северо-западный.
Видимость - горизонтальная дальность видимости в метрах или километрах. При видимости от 1 до 10 км при отсутствии осадков обычно наблюдается дымка, при ухудшении видимости до 1 км и менее - туман. В сухую погоду видимость может ухудшаться дымом, пылью или мглою.
Явления - указаны атмосферные явления, наблюдавшиеся в срок или в последний час перед сроком; фигурными скобками обозначены явления, наблюдавшиеся между сроками (за 1-3 часа до срока); квадратными скобками обозначены град или гололедные отложения с указанием их диаметра в мм.
Облачность - указаны через наклонную черту общая и нижняя облачность в баллах и высота нижней границы облаков в метрах; квадратными скобками обозначены формы облаков: Ci - перистые, Cs - перисто-слоистые, Cc - перисто-кучевые, Ac - высококучевые, As - высокослоистые, Sc - слоисто-кучевые, Ns - слоисто-дождевые, Cu - кучевые, Cb - кучево-дождевые. Подробнее классификацию облаков см. в Атласе облаков (PDF).
T - Температура воздуха - температура, измеренная на высоте 2 м над землей.
Td - Температура точки росы - температура, при понижении до которой содержащийся в воздухе водяной пар достигнет насыщения.
f - Относительная влажность воздуха - влажноcть воздуха, измеренная на высоте 2 м над землей.
Te - Эффективная температура - температура, которую ощущает одетый по сезону человек в тени. Характеристика душности погоды. При расчете учитывается влияние влажности воздуха и скорости ветра на теплоощущения человека.
Tes - Эффективная температура на солнце - температура, которую ощущает человек, с поправкой на солнечный нагрев. Характеристика знойности погоды. Зависит от высоты солнца над горизонтом, облачности и скорости ветра. Ночью, в пасмурную погоду, а также при ветре 12 м/с и более поправка равна нулю.
P - Атмосферное давление - приведенное к уровню моря атмосферное давление.
Po - Атмосферное давление - измеренное на уровне метеостанции атмосферное давление.
Tmin - Минимальная температура - минимум температуры воздуха на высоте 2 м над землей.
Tmax - Максимальная температура - максимум температуры воздуха на высоте 2 м над землей.
R - Количество осадков - Количество выпавших осадков за период времени, мм. При наведении курсора мыши на число - период времени, за который выпало указанное количество осадков.
R24 - Количество осадков - Количество выпавших осадков за 24 часа, мм.
S - Снежный покров - Высота снежного покрова, см. При наведении курсора мыши на число - состояние снежного покрова и степень покрытия местности в баллах.